contact:dominique.lefevre@mio.osupytheas.fr, maurice.libes@osupytheas.fr, didier.mallarino@osupytheas.fr
Project:EMSO http://www.emso-fr.org/EMSO-France
Depth: 2436.0 m
Title:EMSO Ligure Ouest : Data MII capteur MICROCAT
DateTime_Computer,Latitude,Longitude,Temperature,Conductivity,Pressure,DateTime_Instrument
DateTime_Computer,Latitude,Longitude,degC,S m-1,dbar,DateTime_Instrument
2022-04-16T00:01:39Z,42.805,6.029,13.3001,4.60036,2470.087,2022-4-16T02:03:17Z
2022-04-16T00:04:42Z,42.805,6.029,13.3000,4.60035,2470.087,2022-4-16T02:06:20Z
2022-04-16T00:07:45Z,42.805,6.029,13.3003,4.60036,2470.04,2022-4-16T02:09:23Z
2022-04-16T00:10:48Z,42.805,6.029,13.3003,4.60037,2470.063,2022-4-16T02:12:27Z
2022-04-16T00:13:51Z,42.805,6.029,13.2997,4.60036,2470.04,2022-4-16T02:15:30Z
2022-04-16T00:16:54Z,42.805,6.029,13.3000,4.60035,2470.063,2022-4-16T02:18:33Z
2022-04-16T00:19:57Z,42.805,6.029,13.2997,4.60036,2470.063,2022-4-16T02:21:36Z
2022-04-16T00:23:01Z,42.805,6.029,13.3002,4.60035,2470.063,2022-4-16T02:24:39Z
2022-04-16T00:26:04Z,42.805,6.029,13.2998,4.60035,2470.04,2022-4-16T02:27:42Z
2022-04-16T00:29:07Z,42.805,6.029,13.3000,4.60035,2470.063,2022-4-16T02:30:45Z
2022-04-16T00:32:10Z,42.805,6.029,13.3000,4.60036,2470.063,2022-4-16T02:33:48Z
2022-04-16T00:35:13Z,42.805,6.029,13.3001,4.60038,2470.077,2022-4-16T02:36:52Z
2022-04-16T00:38:16Z,42.805,6.029,13.3000,4.60037,2470.063,2022-4-16T02:39:55Z
2022-04-16T00:41:19Z,42.805,6.029,13.2998,4.60036,2470.1,2022-4-16T02:42:58Z
2022-04-16T00:44:22Z,42.805,6.029,13.3001,4.60036,2470.063,2022-4-16T02:46:01Z
2022-04-16T00:47:26Z,42.805,6.029,13.3002,4.60035,2470.053,2022-4-16T02:49:04Z
2022-04-16T00:50:29Z,42.805,6.029,13.3001,4.60036,2470.063,2022-4-16T02:52:07Z
2022-04-16T00:53:32Z,42.805,6.029,13.3002,4.60037,2470.063,2022-4-16T02:55:10Z
2022-04-16T00:56:35Z,42.805,6.029,13.2998,4.60038,2470.04,2022-4-16T02:58:13Z
2022-04-16T00:59:38Z,42.805,6.029,13.3000,4.60038,2470.063,2022-4-16T03:01:16Z
2022-04-16T01:02:41Z,42.805,6.029,13.3000,4.60035,2470.063,2022-4-16T03:04:20Z
2022-04-16T01:05:44Z,42.805,6.029,13.2998,4.60036,2470.063,2022-4-16T03:07:23Z
2022-04-16T01:08:47Z,42.805,6.029,13.3000,4.60036,2470.1,2022-4-16T03:10:26Z
2022-04-16T01:11:50Z,42.805,6.029,13.3000,4.60036,2470.063,2022-4-16T03:13:29Z
2022-04-16T01:14:54Z,42.805,6.029,13.2998,4.60034,2470.04,2022-4-16T03:16:32Z
2022-04-16T01:17:57Z,42.805,6.029,13.2994,4.60035,2470.077,2022-4-16T03:19:35Z
2022-04-16T01:21:00Z,42.805,6.029,13.3002,4.60035,2470.063,2022-4-16T03:22:38Z
2022-04-16T01:24:03Z,42.805,6.029,13.3004,4.60037,2470.087,2022-4-16T03:25:41Z
2022-04-16T01:27:06Z,42.805,6.029,13.3002,4.60035,2470.124,2022-4-16T03:28:45Z
2022-04-16T01:30:09Z,42.805,6.029,13.3000,4.60036,2470.1,2022-4-16T03:31:48Z
2022-04-16T01:33:12Z,42.805,6.029,13.3000,4.60036,2470.087,2022-4-16T03:34:51Z
2022-04-16T01:36:15Z,42.805,6.029,13.2998,4.60036,2470.063,2022-4-16T03:37:54Z
2022-04-16T01:39:19Z,42.805,6.029,13.3004,4.60036,2470.1,2022-4-16T03:40:57Z
2022-04-16T01:42:22Z,42.805,6.029,13.2998,4.60036,2470.087,2022-4-16T03:44:00Z
2022-04-16T01:45:25Z,42.805,6.029,13.3000,4.60036,2470.063,2022-4-16T03:47:03Z
2022-04-16T01:48:28Z,42.805,6.029,13.3000,4.60035,2470.04,2022-4-16T03:50:06Z
2022-04-16T01:51:31Z,42.805,6.029,13.2998,4.60037,2470.04,2022-4-16T03:53:10Z
2022-04-16T01:54:34Z,42.805,6.029,13.2995,4.60036,2470.077,2022-4-16T03:56:13Z
2022-04-16T01:57:37Z,42.805,6.029,13.3000,4.60034,2470.087,2022-4-16T03:59:16Z
2022-04-16T02:00:40Z,42.805,6.029,13.3000,4.60037,2470.11,2022-4-16T04:02:19Z
2022-04-16T02:03:43Z,42.805,6.029,13.3001,4.60034,2470.063,2022-4-16T04:05:22Z
2022-04-16T02:06:47Z,42.805,6.029,13.2998,4.60037,2470.063,2022-4-16T04:08:25Z
2022-04-16T02:09:50Z,42.805,6.029,13.2999,4.60040,2470.063,2022-4-16T04:11:28Z
2022-04-16T02:12:53Z,42.805,6.029,13.3001,4.60036,2470.04,2022-4-16T04:14:31Z
2022-04-16T02:15:56Z,42.805,6.029,13.2998,4.60035,2470.063,2022-4-16T04:17:34Z
2022-04-16T02:18:59Z,42.805,6.029,13.3002,4.60038,2470.11,2022-4-16T04:20:38Z
2022-04-16T02:22:02Z,42.805,6.029,13.2997,4.60036,2470.147,2022-4-16T04:23:41Z
2022-04-16T02:25:05Z,42.805,6.029,13.2999,4.60039,2470.087,2022-4-16T04:26:44Z
2022-04-16T02:28:08Z,42.805,6.029,13.2999,4.60037,2470.087,2022-4-16T04:29:47Z
2022-04-16T02:31:12Z,42.805,6.029,13.3000,4.60036,2470.087,2022-4-16T04:32:50Z
2022-04-16T02:34:15Z,42.805,6.029,13.2997,4.60035,2470.1,2022-4-16T04:35:53Z
2022-04-16T02:37:18Z,42.805,6.029,13.2998,4.60035,2470.087,2022-4-16T04:38:56Z
2022-04-16T02:40:21Z,42.805,6.029,13.2997,4.60035,2470.087,2022-4-16T04:41:59Z
2022-04-16T02:43:24Z,42.805,6.029,13.3004,4.60036,2470.087,2022-4-16T04:45:03Z
2022-04-16T02:46:27Z,42.805,6.029,13.3000,4.60036,2470.133,2022-4-16T04:48:06Z
2022-04-16T02:49:30Z,42.805,6.029,13.2998,4.60036,2470.133,2022-4-16T04:51:09Z
2022-04-16T02:52:33Z,42.805,6.029,13.2998,4.60034,2470.087,2022-4-16T04:54:12Z
2022-04-16T02:55:37Z,42.805,6.029,13.2996,4.60035,2470.147,2022-4-16T04:57:15Z
2022-04-16T02:58:40Z,42.805,6.029,13.2998,4.60034,2470.147,2022-4-16T05:00:18Z
2022-04-16T03:01:43Z,42.805,6.029,13.3000,4.60037,2470.11,2022-4-16T05:03:21Z
2022-04-16T03:04:46Z,42.805,6.029,13.3000,4.60035,2470.124,2022-4-16T05:06:24Z
2022-04-16T03:07:49Z,42.805,6.029,13.2997,4.60035,2470.147,2022-4-16T05:09:28Z
2022-04-16T03:10:52Z,42.805,6.029,13.2999,4.60036,2470.087,2022-4-16T05:12:31Z
2022-04-16T03:13:55Z,42.805,6.029,13.2999,4.60036,2470.133,2022-4-16T05:15:34Z
2022-04-16T03:16:58Z,42.805,6.029,13.2997,4.60038,2470.133,2022-4-16T05:18:37Z
2022-04-16T03:20:01Z,42.805,6.029,13.3000,4.60038,2470.156,2022-4-16T05:21:40Z
2022-04-16T03:23:05Z,42.805,6.029,13.2999,4.60039,2470.156,2022-4-16T05:24:43Z
2022-04-16T03:26:08Z,42.805,6.029,13.3000,4.60040,2470.171,2022-4-16T05:27:46Z
2022-04-16T03:29:11Z,42.805,6.029,13.2998,4.60042,2470.147,2022-4-16T05:30:49Z
2022-04-16T03:32:14Z,42.805,6.029,13.3000,4.60039,2470.156,2022-4-16T05:33:53Z
2022-04-16T03:35:17Z,42.805,6.029,13.3003,4.60039,2470.156,2022-4-16T05:36:56Z
2022-04-16T03:38:20Z,42.805,6.029,13.3002,4.60041,2470.147,2022-4-16T05:39:59Z
2022-04-16T03:41:23Z,42.805,6.029,13.3001,4.60035,2470.147,2022-4-16T05:43:02Z
2022-04-16T03:44:26Z,42.805,6.029,13.3000,4.60039,2470.18,2022-4-16T05:46:05Z
2022-04-16T03:47:30Z,42.805,6.029,13.3000,4.60038,2470.194,2022-4-16T05:49:08Z
2022-04-16T03:50:33Z,42.805,6.029,13.2994,4.60039,2470.156,2022-4-16T05:52:11Z
2022-04-16T03:53:36Z,42.805,6.029,13.3002,4.60039,2470.18,2022-4-16T05:55:14Z
2022-04-16T03:56:39Z,42.805,6.029,13.2999,4.60039,2470.156,2022-4-16T05:58:17Z
2022-04-16T03:59:42Z,42.805,6.029,13.3000,4.60046,2470.203,2022-4-16T06:01:21Z
2022-04-16T04:02:45Z,42.805,6.029,13.3000,4.60039,2470.194,2022-4-16T06:04:24Z
2022-04-16T04:05:48Z,42.805,6.029,13.3002,4.60041,2470.217,2022-4-16T06:07:27Z
2022-04-16T04:08:51Z,42.805,6.029,13.3000,4.60040,2470.18,2022-4-16T06:10:30Z
2022-04-16T04:11:55Z,42.805,6.029,13.2999,4.60036,2470.18,2022-4-16T06:13:33Z
2022-04-16T04:14:58Z,42.805,6.029,13.3002,4.60039,2470.194,2022-4-16T06:16:36Z
2022-04-16T04:18:01Z,42.805,6.029,13.3000,4.60039,2470.217,2022-4-16T06:19:39Z
2022-04-16T04:21:04Z,42.805,6.029,13.2999,4.60040,2470.203,2022-4-16T06:22:42Z
2022-04-16T04:24:07Z,42.805,6.029,13.3001,4.60039,2470.217,2022-4-16T06:25:46Z
2022-04-16T04:27:10Z,42.805,6.029,13.3000,4.60038,2470.227,2022-4-16T06:28:49Z
2022-04-16T04:30:13Z,42.805,6.029,13.3001,4.60039,2470.227,2022-4-16T06:31:52Z
2022-04-16T04:33:16Z,42.805,6.029,13.3000,4.60038,2470.227,2022-4-16T06:34:55Z
2022-04-16T04:36:20Z,42.805,6.029,13.3002,4.60038,2470.217,2022-4-16T06:37:58Z
2022-04-16T04:39:23Z,42.805,6.029,13.3000,4.60049,2470.25,2022-4-16T06:41:01Z
2022-04-16T04:42:26Z,42.805,6.029,13.3000,4.60041,2470.24,2022-4-16T06:44:04Z
2022-04-16T04:45:29Z,42.805,6.029,13.2999,4.60046,2470.236,2022-4-16T06:47:07Z
2022-04-16T04:48:32Z,42.805,6.029,13.3004,4.60044,2470.227,2022-4-16T06:50:11Z
2022-04-16T04:51:35Z,42.805,6.029,13.2999,4.60044,2470.273,2022-4-16T06:53:14Z
2022-04-16T04:54:38Z,42.805,6.029,13.3000,4.60042,2470.25,2022-4-16T06:56:17Z
2022-04-16T04:57:41Z,42.805,6.029,13.2998,4.60041,2470.264,2022-4-16T06:59:20Z
2022-04-16T05:00:44Z,42.805,6.029,13.2997,4.60040,2470.25,2022-4-16T07:02:23Z
2022-04-16T05:03:48Z,42.805,6.029,13.2998,4.60039,2470.297,2022-4-16T07:05:26Z
2022-04-16T05:06:51Z,42.805,6.029,13.3003,4.60041,2470.273,2022-4-16T07:08:29Z
2022-04-16T05:09:54Z,42.805,6.029,13.2996,4.60039,2470.264,2022-4-16T07:11:32Z
2022-04-16T05:12:57Z,42.805,6.029,13.3001,4.60041,2470.264,2022-4-16T07:14:35Z
2022-04-16T05:16:00Z,42.805,6.029,13.2997,4.60040,2470.273,2022-4-16T07:17:39Z
2022-04-16T05:19:03Z,42.805,6.029,13.2997,4.60039,2470.273,2022-4-16T07:20:42Z
2022-04-16T05:22:06Z,42.805,6.029,13.2996,4.60039,2470.273,2022-4-16T07:23:45Z
2022-04-16T05:25:09Z,42.805,6.029,13.3004,4.60039,2470.283,2022-4-16T07:26:48Z
2022-04-16T05:28:13Z,42.805,6.029,13.2999,4.60042,2470.31,2022-4-16T07:29:51Z
2022-04-16T05:31:16Z,42.805,6.029,13.3001,4.60044,2470.32,2022-4-16T07:32:54Z
2022-04-16T05:34:19Z,42.805,6.029,13.3001,4.60043,2470.32,2022-4-16T07:35:57Z
2022-04-16T05:37:22Z,42.805,6.029,13.3000,4.60043,2470.297,2022-4-16T07:39:00Z
2022-04-16T05:40:25Z,42.805,6.029,13.3000,4.60039,2470.297,2022-4-16T07:42:04Z
2022-04-16T05:43:28Z,42.805,6.029,13.3001,4.60039,2470.357,2022-4-16T07:45:07Z
2022-04-16T05:46:31Z,42.805,6.029,13.2995,4.60038,2470.32,2022-4-16T07:48:10Z
2022-04-16T05:49:34Z,42.805,6.029,13.2996,4.60039,2470.297,2022-4-16T07:51:13Z
2022-04-16T05:52:38Z,42.805,6.029,13.3002,4.60038,2470.343,2022-4-16T07:54:16Z
2022-04-16T05:55:41Z,42.805,6.029,13.3001,4.60038,2470.297,2022-4-16T07:57:19Z
2022-04-16T05:58:44Z,42.805,6.029,13.2998,4.60039,2470.347,2022-4-16T08:00:22Z
2022-04-16T06:01:47Z,42.805,6.029,13.3003,4.60039,2470.366,2022-4-16T08:03:25Z
2022-04-16T06:04:50Z,42.805,6.029,13.2997,4.60038,2470.297,2022-4-16T08:06:29Z
2022-04-16T06:07:53Z,42.805,6.029,13.3000,4.60038,2470.31,2022-4-16T08:09:32Z
2022-04-16T06:10:56Z,42.805,6.029,13.2996,4.60042,2470.297,2022-4-16T08:12:35Z
2022-04-16T06:13:59Z,42.805,6.029,13.3000,4.60044,2470.32,2022-4-16T08:15:38Z
2022-04-16T06:17:03Z,42.805,6.029,13.2999,4.60041,2470.32,2022-4-16T08:18:41Z
2022-04-16T06:20:06Z,42.805,6.029,13.2999,4.60041,2470.297,2022-4-16T08:21:44Z
2022-04-16T06:23:09Z,42.805,6.029,13.2998,4.60041,2470.366,2022-4-16T08:24:47Z
2022-04-16T06:26:12Z,42.805,6.029,13.3000,4.60039,2470.357,2022-4-16T08:27:50Z
2022-04-16T06:29:15Z,42.805,6.029,13.3000,4.60039,2470.343,2022-4-16T08:30:53Z
2022-04-16T06:32:18Z,42.805,6.029,13.3002,4.60041,2470.297,2022-4-16T08:33:57Z
2022-04-16T06:35:21Z,42.805,6.029,13.3004,4.60039,2470.343,2022-4-16T08:37:00Z
2022-04-16T06:38:24Z,42.805,6.029,13.3001,4.60039,2470.357,2022-4-16T08:40:03Z
2022-04-16T06:41:27Z,42.805,6.029,13.3003,4.60038,2470.32,2022-4-16T08:43:06Z
2022-04-16T06:44:31Z,42.805,6.029,13.2997,4.60039,2470.334,2022-4-16T08:46:09Z
2022-04-16T06:47:34Z,42.805,6.029,13.2998,4.60042,2470.297,2022-4-16T08:49:12Z
2022-04-16T06:50:37Z,42.805,6.029,13.3001,4.60040,2470.32,2022-4-16T08:52:15Z
2022-04-16T06:53:40Z,42.805,6.029,13.3001,4.60042,2470.334,2022-4-16T08:55:18Z
2022-04-16T06:56:43Z,42.805,6.029,13.2997,4.60039,2470.334,2022-4-16T08:58:22Z
2022-04-16T06:59:46Z,42.805,6.029,13.3004,4.60040,2470.297,2022-4-16T09:01:25Z
2022-04-16T07:02:49Z,42.805,6.029,13.3001,4.60040,2470.343,2022-4-16T09:04:28Z
2022-04-16T07:05:52Z,42.805,6.029,13.2999,4.60041,2470.357,2022-4-16T09:07:31Z
2022-04-16T07:08:56Z,42.805,6.029,13.3004,4.60040,2470.32,2022-4-16T09:10:34Z
2022-04-16T07:11:59Z,42.805,6.029,13.3000,4.60039,2470.32,2022-4-16T09:13:37Z
2022-04-16T07:15:02Z,42.805,6.029,13.2996,4.60039,2470.32,2022-4-16T09:16:40Z
2022-04-16T07:18:05Z,42.805,6.029,13.2998,4.60039,2470.297,2022-4-16T09:19:43Z
2022-04-16T07:21:08Z,42.805,6.029,13.3000,4.60041,2470.297,2022-4-16T09:22:46Z
2022-04-16T07:24:11Z,42.805,6.029,13.3002,4.60042,2470.31,2022-4-16T09:25:50Z
2022-04-16T07:27:14Z,42.805,6.029,13.3000,4.60040,2470.32,2022-4-16T09:28:53Z
2022-04-16T07:30:17Z,42.805,6.029,13.3002,4.60040,2470.357,2022-4-16T09:31:56Z
2022-04-16T07:33:21Z,42.805,6.029,13.2998,4.60041,2470.357,2022-4-16T09:34:59Z
2022-04-16T07:36:24Z,42.805,6.029,13.2997,4.60039,2470.32,2022-4-16T09:38:02Z
2022-04-16T07:39:27Z,42.805,6.029,13.3003,4.60039,2470.32,2022-4-16T09:41:05Z
2022-04-16T07:42:30Z,42.805,6.029,13.2998,4.60039,2470.343,2022-4-16T09:44:08Z
2022-04-16T07:45:33Z,42.805,6.029,13.2997,4.60039,2470.297,2022-4-16T09:47:11Z
2022-04-16T07:48:36Z,42.805,6.029,13.3003,4.60040,2470.32,2022-4-16T09:50:15Z
2022-04-16T07:51:39Z,42.805,6.029,13.3000,4.60040,2470.357,2022-4-16T09:53:18Z
2022-04-16T07:54:42Z,42.805,6.029,13.2998,4.60040,2470.32,2022-4-16T09:56:21Z
2022-04-16T07:57:45Z,42.805,6.029,13.2996,4.60039,2470.32,2022-4-16T09:59:24Z
2022-04-16T08:00:49Z,42.805,6.029,13.3002,4.60038,2470.357,2022-4-16T10:02:27Z
2022-04-16T08:03:52Z,42.805,6.029,13.2996,4.60041,2470.32,2022-4-16T10:05:30Z
2022-04-16T08:06:55Z,42.805,6.029,13.3000,4.60039,2470.343,2022-4-16T10:08:33Z
2022-04-16T08:09:58Z,42.805,6.029,13.3003,4.60039,2470.343,2022-4-16T10:11:36Z
2022-04-16T08:13:01Z,42.805,6.029,13.2999,4.60039,2470.32,2022-4-16T10:14:40Z
2022-04-16T08:16:04Z,42.805,6.029,13.3000,4.60039,2470.334,2022-4-16T10:17:43Z
2022-04-16T08:19:07Z,42.805,6.029,13.3000,4.60039,2470.32,2022-4-16T10:20:46Z
2022-04-16T08:22:10Z,42.805,6.029,13.2998,4.60039,2470.32,2022-4-16T10:23:49Z
2022-04-16T08:25:14Z,42.805,6.029,13.3000,4.60039,2470.343,2022-4-16T10:26:52Z
2022-04-16T08:28:17Z,42.805,6.029,13.3004,4.60039,2470.32,2022-4-16T10:29:55Z
2022-04-16T08:31:20Z,42.805,6.029,13.3000,4.60039,2470.357,2022-4-16T10:32:58Z
2022-04-16T08:34:23Z,42.805,6.029,13.3001,4.60039,2470.343,2022-4-16T10:36:01Z
2022-04-16T08:37:26Z,42.805,6.029,13.3002,4.60039,2470.297,2022-4-16T10:39:05Z
2022-04-16T08:40:29Z,42.805,6.029,13.3000,4.60038,2470.297,2022-4-16T10:42:08Z
2022-04-16T08:43:32Z,42.805,6.029,13.2998,4.60038,2470.287,2022-4-16T10:45:11Z
2022-04-16T08:46:36Z,42.805,6.029,13.2996,4.60038,2470.297,2022-4-16T10:48:14Z
2022-04-16T08:49:39Z,42.805,6.029,13.2997,4.60039,2470.297,2022-4-16T10:51:17Z
2022-04-16T08:52:42Z,42.805,6.029,13.3002,4.60040,2470.32,2022-4-16T10:54:20Z
2022-04-16T08:55:45Z,42.805,6.029,13.3005,4.60041,2470.273,2022-4-16T10:57:23Z
2022-04-16T08:58:48Z,42.805,6.029,13.3000,4.60042,2470.31,2022-4-16T11:00:26Z
2022-04-16T09:01:51Z,42.805,6.029,13.3000,4.60039,2470.31,2022-4-16T11:03:30Z
2022-04-16T09:04:54Z,42.805,6.029,13.3002,4.60040,2470.31,2022-4-16T11:06:33Z
2022-04-16T09:07:57Z,42.805,6.029,13.3001,4.60038,2470.273,2022-4-16T11:09:36Z
2022-04-16T09:11:00Z,42.805,6.029,13.3002,4.60041,2470.297,2022-4-16T11:12:39Z
2022-04-16T09:14:04Z,42.805,6.029,13.3000,4.60039,2470.287,2022-4-16T11:15:42Z
2022-04-16T09:17:07Z,42.805,6.029,13.2998,4.60039,2470.297,2022-4-16T11:18:45Z
2022-04-16T09:20:10Z,42.805,6.029,13.2997,4.60040,2470.287,2022-4-16T11:21:48Z
2022-04-16T09:23:13Z,42.805,6.029,13.3001,4.60040,2470.273,2022-4-16T11:24:51Z
2022-04-16T09:26:16Z,42.805,6.029,13.3000,4.60039,2470.273,2022-4-16T11:27:55Z
2022-04-16T09:29:19Z,42.805,6.029,13.2999,4.60041,2470.273,2022-4-16T11:30:58Z
2022-04-16T09:32:22Z,42.805,6.029,13.2997,4.60038,2470.273,2022-4-16T11:34:01Z
2022-04-16T09:35:26Z,42.805,6.029,13.3000,4.60039,2470.273,2022-4-16T11:37:04Z
2022-04-16T09:38:29Z,42.805,6.029,13.3000,4.60039,2470.287,2022-4-16T11:40:07Z
2022-04-16T09:41:32Z,42.805,6.029,13.3003,4.60039,2470.273,2022-4-16T11:43:10Z
2022-04-16T09:44:35Z,42.805,6.029,13.3005,4.60039,2470.25,2022-4-16T11:46:13Z
2022-04-16T09:47:38Z,42.805,6.029,13.3003,4.60040,2470.297,2022-4-16T11:49:17Z
2022-04-16T09:50:41Z,42.805,6.029,13.3004,4.60040,2470.25,2022-4-16T11:52:20Z
2022-04-16T09:53:44Z,42.805,6.029,13.2999,4.60039,2470.297,2022-4-16T11:55:23Z
2022-04-16T09:56:47Z,42.805,6.029,13.3001,4.60041,2470.273,2022-4-16T11:58:26Z
2022-04-16T09:59:51Z,42.805,6.029,13.3000,4.60039,2470.273,2022-4-16T12:01:29Z
2022-04-16T10:02:54Z,42.805,6.029,13.3000,4.60039,2470.264,2022-4-16T12:04:32Z
2022-04-16T10:05:57Z,42.805,6.029,13.3000,4.60039,2470.236,2022-4-16T12:07:35Z
2022-04-16T10:09:00Z,42.805,6.029,13.2998,4.60039,2470.227,2022-4-16T12:10:38Z
2022-04-16T10:12:03Z,42.805,6.029,13.2998,4.60039,2470.273,2022-4-16T12:13:42Z
2022-04-16T10:15:06Z,42.805,6.029,13.2998,4.60038,2470.227,2022-4-16T12:16:45Z
2022-04-16T10:18:09Z,42.805,6.029,13.2999,4.60039,2470.24,2022-4-16T12:19:48Z
2022-04-16T10:21:12Z,42.805,6.029,13.3000,4.60038,2470.203,2022-4-16T12:22:51Z
2022-04-16T10:24:16Z,42.805,6.029,13.2998,4.60039,2470.24,2022-4-16T12:25:54Z
2022-04-16T10:27:19Z,42.805,6.029,13.3000,4.60039,2470.227,2022-4-16T12:28:57Z
2022-04-16T10:30:22Z,42.805,6.029,13.2996,4.60039,2470.25,2022-4-16T12:32:00Z
2022-04-16T10:33:25Z,42.805,6.029,13.3001,4.60039,2470.227,2022-4-16T12:35:03Z
2022-04-16T10:36:28Z,42.805,6.029,13.3003,4.60041,2470.227,2022-4-16T12:38:07Z
2022-04-16T10:39:31Z,42.805,6.029,13.2998,4.60040,2470.227,2022-4-16T12:41:10Z
2022-04-16T10:42:34Z,42.805,6.029,13.2999,4.60037,2470.24,2022-4-16T12:44:13Z
2022-04-16T10:45:37Z,42.805,6.029,13.3004,4.60039,2470.227,2022-4-16T12:47:16Z
2022-04-16T10:48:41Z,42.805,6.029,13.3000,4.60039,2470.25,2022-4-16T12:50:19Z
2022-04-16T10:51:44Z,42.805,6.029,13.3000,4.60039,2470.24,2022-4-16T12:53:22Z
2022-04-16T10:54:47Z,42.805,6.029,13.3004,4.60038,2470.203,2022-4-16T12:56:25Z
2022-04-16T10:57:50Z,42.805,6.029,13.2998,4.60039,2470.24,2022-4-16T12:59:28Z
2022-04-16T11:00:53Z,42.805,6.029,13.2998,4.60038,2470.203,2022-4-16T13:02:32Z
2022-04-16T11:03:56Z,42.805,6.029,13.3003,4.60038,2470.203,2022-4-16T13:05:35Z
2022-04-16T11:06:59Z,42.805,6.029,13.3002,4.60037,2470.227,2022-4-16T13:08:38Z
2022-04-16T11:10:02Z,42.805,6.029,13.3003,4.60039,2470.227,2022-4-16T13:11:41Z
2022-04-16T11:13:06Z,42.805,6.029,13.3000,4.60039,2470.227,2022-4-16T13:14:44Z
2022-04-16T11:16:09Z,42.805,6.029,13.3000,4.60041,2470.194,2022-4-16T13:17:47Z
2022-04-16T11:19:12Z,42.805,6.029,13.2999,4.60039,2470.203,2022-4-16T13:20:50Z
2022-04-16T11:22:15Z,42.805,6.029,13.3000,4.60038,2470.24,2022-4-16T13:23:53Z
2022-04-16T11:25:18Z,42.805,6.029,13.2998,4.60039,2470.24,2022-4-16T13:26:57Z
2022-04-16T11:28:21Z,42.805,6.029,13.3000,4.60039,2470.194,2022-4-16T13:30:00Z
2022-04-16T11:31:24Z,42.805,6.029,13.2997,4.60039,2470.203,2022-4-16T13:33:03Z
2022-04-16T11:34:27Z,42.805,6.029,13.2997,4.60039,2470.203,2022-4-16T13:36:06Z
2022-04-16T11:37:31Z,42.805,6.029,13.2998,4.60039,2470.203,2022-4-16T13:39:09Z
2022-04-16T11:40:34Z,42.805,6.029,13.2998,4.60038,2470.203,2022-4-16T13:42:12Z
2022-04-16T11:43:37Z,42.805,6.029,13.2999,4.60036,2470.18,2022-4-16T13:45:15Z
2022-04-16T11:46:40Z,42.805,6.029,13.2997,4.60037,2470.18,2022-4-16T13:48:18Z
2022-04-16T11:49:43Z,42.805,6.029,13.3000,4.60036,2470.171,2022-4-16T13:51:22Z
2022-04-16T11:52:46Z,42.805,6.029,13.3000,4.60038,2470.217,2022-4-16T13:54:25Z
2022-04-16T11:55:49Z,42.805,6.029,13.3002,4.60037,2470.203,2022-4-16T13:57:28Z
2022-04-16T11:58:52Z,42.805,6.029,13.3002,4.60036,2470.156,2022-4-16T14:00:31Z
2022-04-16T12:01:56Z,42.805,6.029,13.3002,4.60039,2470.194,2022-4-16T14:03:34Z
2022-04-16T12:04:59Z,42.805,6.029,13.3000,4.60039,2470.18,2022-4-16T14:06:37Z
2022-04-16T12:08:02Z,42.805,6.029,13.2999,4.60039,2470.18,2022-4-16T14:09:40Z
2022-04-16T12:11:05Z,42.805,6.029,13.3001,4.60039,2470.18,2022-4-16T14:12:43Z
2022-04-16T12:14:08Z,42.805,6.029,13.2996,4.60041,2470.217,2022-4-16T14:15:47Z
2022-04-16T12:17:11Z,42.805,6.029,13.2997,4.60038,2470.18,2022-4-16T14:18:50Z
2022-04-16T12:20:14Z,42.805,6.029,13.2996,4.60037,2470.18,2022-4-16T14:21:53Z
2022-04-16T12:23:17Z,42.805,6.029,13.3001,4.60036,2470.156,2022-4-16T14:24:56Z
2022-04-16T12:26:21Z,42.805,6.029,13.3001,4.60034,2470.171,2022-4-16T14:27:59Z
2022-04-16T12:29:24Z,42.805,6.029,13.2999,4.60038,2470.203,2022-4-16T14:31:02Z
2022-04-16T12:32:27Z,42.805,6.029,13.3000,4.60039,2470.18,2022-4-16T14:34:05Z
2022-04-16T12:35:30Z,42.805,6.029,13.2997,4.60038,2470.203,2022-4-16T14:37:08Z
2022-04-16T12:38:33Z,42.805,6.029,13.3000,4.60036,2470.18,2022-4-16T14:40:12Z
2022-04-16T12:41:36Z,42.805,6.029,13.3000,4.60037,2470.171,2022-4-16T14:43:15Z
2022-04-16T12:44:39Z,42.805,6.029,13.3002,4.60036,2470.133,2022-4-16T14:46:18Z
2022-04-16T12:47:42Z,42.805,6.029,13.2998,4.60037,2470.143,2022-4-16T14:49:21Z
2022-04-16T12:50:46Z,42.805,6.029,13.3000,4.60039,2470.156,2022-4-16T14:52:24Z
2022-04-16T12:53:49Z,42.805,6.029,13.3000,4.60039,2470.156,2022-4-16T14:55:27Z
2022-04-16T12:56:52Z,42.805,6.029,13.2998,4.60038,2470.156,2022-4-16T14:58:30Z
2022-04-16T12:59:55Z,42.805,6.029,13.3000,4.60039,2470.156,2022-4-16T15:01:34Z
2022-04-16T13:02:58Z,42.805,6.029,13.2995,4.60037,2470.18,2022-4-16T15:04:37Z
2022-04-16T13:06:01Z,42.805,6.029,13.2996,4.60039,2470.11,2022-4-16T15:07:40Z
2022-04-16T13:09:04Z,42.805,6.029,13.2999,4.60036,2470.171,2022-4-16T15:10:43Z
2022-04-16T13:12:07Z,42.805,6.029,13.2997,4.60039,2470.133,2022-4-16T15:13:46Z
2022-04-16T13:15:11Z,42.805,6.029,13.2998,4.60040,2470.156,2022-4-16T15:16:49Z
2022-04-16T13:18:14Z,42.805,6.029,13.3000,4.60037,2470.147,2022-4-16T15:19:52Z
2022-04-16T13:21:17Z,42.805,6.029,13.3001,4.60037,2470.171,2022-4-16T15:22:55Z
2022-04-16T13:24:20Z,42.805,6.029,13.2998,4.60038,2470.133,2022-4-16T15:25:59Z
2022-04-16T13:27:23Z,42.805,6.029,13.2999,4.60041,2470.156,2022-4-16T15:29:02Z
2022-04-16T13:30:26Z,42.805,6.029,13.3002,4.60039,2470.11,2022-4-16T15:32:05Z
2022-04-16T13:33:29Z,42.805,6.029,13.2999,4.60039,2470.156,2022-4-16T15:35:08Z
2022-04-16T13:36:32Z,42.805,6.029,13.3001,4.60037,2470.133,2022-4-16T15:38:11Z
2022-04-16T13:39:36Z,42.805,6.029,13.3004,4.60038,2470.133,2022-4-16T15:41:14Z
2022-04-16T13:42:39Z,42.805,6.029,13.2999,4.60039,2470.133,2022-4-16T15:44:17Z
2022-04-16T13:45:42Z,42.805,6.029,13.2997,4.60039,2470.133,2022-4-16T15:47:20Z
2022-04-16T13:48:45Z,42.805,6.029,13.2999,4.60039,2470.147,2022-4-16T15:50:24Z
2022-04-16T13:51:48Z,42.805,6.029,13.3000,4.60037,2470.147,2022-4-16T15:53:27Z
2022-04-16T13:54:51Z,42.805,6.029,13.2996,4.60038,2470.133,2022-4-16T15:56:30Z
2022-04-16T13:57:54Z,42.805,6.029,13.3000,4.60036,2470.18,2022-4-16T15:59:33Z
2022-04-16T14:00:58Z,42.805,6.029,13.2997,4.60041,2470.171,2022-4-16T16:02:36Z
2022-04-16T14:04:01Z,42.805,6.029,13.2999,4.60038,2470.133,2022-4-16T16:05:39Z
2022-04-16T14:07:04Z,42.805,6.029,13.2998,4.60036,2470.133,2022-4-16T16:08:42Z
2022-04-16T14:10:07Z,42.805,6.029,13.2998,4.60039,2470.119,2022-4-16T16:11:45Z
2022-04-16T14:13:10Z,42.805,6.029,13.2997,4.60038,2470.133,2022-4-16T16:14:49Z
2022-04-16T14:16:13Z,42.805,6.029,13.3002,4.60039,2470.156,2022-4-16T16:17:52Z
2022-04-16T14:19:16Z,42.805,6.029,13.2998,4.60039,2470.133,2022-4-16T16:20:55Z
2022-04-16T14:22:19Z,42.805,6.029,13.3003,4.60037,2470.156,2022-4-16T16:23:58Z
2022-04-16T14:25:23Z,42.805,6.029,13.2999,4.60037,2470.171,2022-4-16T16:27:01Z
2022-04-16T14:28:26Z,42.805,6.029,13.2997,4.60038,2470.156,2022-4-16T16:30:04Z
2022-04-16T14:31:29Z,42.805,6.029,13.3000,4.60038,2470.18,2022-4-16T16:33:07Z
2022-04-16T14:34:32Z,42.805,6.029,13.3004,4.60038,2470.133,2022-4-16T16:36:10Z
2022-04-16T14:37:35Z,42.805,6.029,13.2999,4.60039,2470.156,2022-4-16T16:39:14Z
2022-04-16T14:40:38Z,42.805,6.029,13.3005,4.60039,2470.156,2022-4-16T16:42:17Z
2022-04-16T14:43:41Z,42.805,6.029,13.2997,4.60041,2470.18,2022-4-16T16:45:20Z
2022-04-16T14:46:44Z,42.805,6.029,13.3000,4.60041,2470.171,2022-4-16T16:48:23Z
2022-04-16T14:49:48Z,42.805,6.029,13.3001,4.60039,2470.156,2022-4-16T16:51:26Z
2022-04-16T14:52:51Z,42.805,6.029,13.3001,4.60040,2470.156,2022-4-16T16:54:29Z
2022-04-16T14:55:54Z,42.805,6.029,13.2998,4.60038,2470.171,2022-4-16T16:57:32Z
2022-04-16T14:58:57Z,42.805,6.029,13.2998,4.60038,2470.194,2022-4-16T17:00:35Z
2022-04-16T15:02:00Z,42.805,6.029,13.2998,4.60038,2470.18,2022-4-16T17:03:39Z
2022-04-16T15:05:03Z,42.805,6.029,13.2997,4.60036,2470.171,2022-4-16T17:06:42Z
2022-04-16T15:08:06Z,42.805,6.029,13.2998,4.60038,2470.18,2022-4-16T17:09:45Z
2022-04-16T15:11:09Z,42.805,6.029,13.2999,4.60043,2470.171,2022-4-16T17:12:48Z
2022-04-16T15:14:13Z,42.805,6.029,13.2996,4.60042,2470.18,2022-4-16T17:15:51Z